Location: Chemnitz
(49.5500°N, 11.5830°E)
Time: 14:50:33
(UTC+02:00)

ISS - Pass Details

Date: 29 March 2017
Orbit: 399 x 409 km, 51.6° (Epoch: 30 March)

Event Time Altitude Azimuth Distance (km) Brightness Sun altitude
Rises 21:40:19 0° 243° (WSW) 2,308 0.5 -19.1°
Reaches altitude 10° 21:42:23 10° 240° (WSW) 1,453 -0.7 -19.4°
Enters shadow 21:45:04 54° 215° (SW) 494 -3.5 -19.7°
